Location: The Saddle
(36.8333°N, 80.3417°W)
Time: 11:08:06
(UTC-04:00)

Tiangong - Visible Passes

Search period start: 13 July 2025 00:00
Search period end: 23 July 2025 00:00
Orbit: 384 x 403 km, 41.5° (Epoch: 12 July)

Date Brightness Start Highest point End Pass type
(mag) Time Alt. Az. Time Alt. Az. Time Alt. Az.
13 Jul 1.1 02:55:10 12° ENE 02:55:10 12° ENE 02:55:30 10° ENE visible
13 Jul -1.7 04:27:36 19° WNW 04:29:48 66° NNE 04:33:03 10° ESE visible
14 Jul -0.1 03:34:27 26° ENE 03:34:27 26° ENE 03:36:10 10° E visible
14 Jul -1.7 05:06:56 10° W 05:10:01 41° SSW 05:13:07 10° SE visible
15 Jul -1.1 04:14:24 37° SE 04:14:24 37° SE 04:16:33 10° ESE visible
15 Jul -0.2 22:21:43 10° SW 22:22:54 19° SSW 22:22:54 19° SSW visible
16 Jul 0.1 04:55:04 14° S 04:55:04 14° S 04:55:49 10° SSE visible
16 Jul -0.8 21:25:29 10° SSW 21:28:03 22° SSE 21:30:35 10° E visible
16 Jul -0.1 23:01:39 10° WSW 23:03:05 24° W 23:03:05 24° W visible
17 Jul -2.2 22:04:49 10° WSW 22:08:02 76° SSE 22:10:04 21° ENE visible
17 Jul 1.0 23:42:12 10° WNW 23:42:31 12° WNW 23:42:31 12° WNW visible
18 Jul -1.7 21:08:09 10° SW 21:11:14 44° SSE 21:14:21 10° ENE visible
18 Jul -1.0 22:45:10 10° W 22:48:17 45° NNW 22:48:56 39° NNE visible
19 Jul -1.6 21:48:09 10° W 21:51:21 62° NNW 21:54:35 10° ENE visible
19 Jul 0.3 23:25:41 10° WNW 23:27:26 24° NW 23:27:26 24° NW visible
20 Jul -0.6 22:28:40 10° WNW 22:31:41 36° N 22:33:17 21° NE visible
21 Jul -0.9 21:31:35 10° W 21:34:40 42° N 21:37:46 10° ENE visible
21 Jul -0.2 23:09:02 10° WNW 23:11:20 31° NNW 23:11:20 31° NNW visible
22 Jul -0.6 22:12:02 10° WNW 22:15:01 34° N 22:16:56 18° ENE visible
22 Jul 1.2 23:49:08 10° WNW 23:49:18 11° WNW 23:49:18 11° WNW visible
